You are here:

home

Questo sito é stato creato esclusivamente per valorizzare il lavoro svolto dall' intero
155° Gruppo E.T.S. del' Aeronautica Militare e non ha nessun fine commerciale ne di lucro. 
Pertanto, l' utilizzo delle foto é consentito solo per uso PRIVATO.

 

 
In alto

LIMS - Piacenza, San Damiano

[source: ADDS]
METAR
LIMS 191355Z 11007KT 2500 -RA BR SCT010 BKN020 20/20 Q1018 RMK OVC VIS MIN 2500 WIND THR30 09006KT YLO =
TAF
TAF LIMS 191400Z 1915/1924 10005KT 5000 BR SCT010 BKN020 TEMPO 1915/1918 2500 RA BR BECMG 1918/1920 3000 BR =
In alto
WEB MASTER
Paolo "paolopaso" Pasotti
______________________________________
Last Update: 25/02/2011
_____________________________________________________________________________________________________________
© 2010 / 2011 - Tutti i diritti riservati
 
 
In alto